User: anonymous   Login
Location: Antichan
(42.9728°N, 0.6667°E)
Time: 04:12:56
(UTC+00:00)
Language:

Cosmos 1850 Rocket - Orbit

View from above orbital plane
View from above orbital plane
View from above satellite
View from above satellite

Ground track
Ground track

The orbit data is extracted from the following two-line orbital elements,

1 18096U 87049B   20303.98104194 -.00000067  00000-0 -13756-4 0  9997
2 18096  74.0392 125.3175 0021948 351.6895   8.3891 14.36553825748725
Epoch (UTC): 29 October 2020 23:32:42
Eccentricity: 0.0021948
inclination: 74.0392°
perigee height: 754 km
apogee height: 785 km
right ascension of ascending node: 125.3175°
argument of perigee: 351.6895°
revolutions per day: 14.36553825
mean anomaly at epoch: 8.3891°
orbit number at epoch: 74872

The dashed part of the orbit path shows where the satellite is in the earth's shadow,  

DLR